Location: Maccacari
(45.1333°N, 11.1333°E)
Time: 01:43:36
(UTC+00:00)

Altair - Pass Details

Date: 24 January 2021
Orbit: 1501 x 1682 km, 47.2° (Epoch: 01 March)

Event Time Altitude Azimuth Distance (km) Brightness Sun altitude
Rises 04:59:54 0° 240° (WSW) 4,863 - -18.2°
Reaches altitude 10° 05:03:00 10° 239° (WSW) 3,896 - -17.7°
Exits shadow 05:03:05 10° 239° (WSW) 3,869 9.2 -17.7°
Maximum altitude 05:13:02 78° 155° (SSE) 1,713 7.8 -15.9°
Drops below altitude 10° 05:23:12 10° 72° (ENE) 3,945 10.6 -14.2°
Sets 05:26:22 0° 71° (ENE) 4,926 11.2 -13.6°
